sat.trackr.live / text

‹ back to catalog

STARLINK-35133

NORAD 65535 · 2025-200R

PAYLOAD ACTIVE UNKNOWN

§ Identity

Operator
Country
US
Launch date
2025-09-06
Launch site
AFWTR
Launch vehicle
Mass (kg)
RCS (m²)

Purposes: comms

External: N2YO · Heavens-Above · Gunter

§ Orbital elements

Epoch: 2026-09-19T10:48:29.721600Z

Period
93.91 min
Inclination
97.2842°
Eccentricity
0.0001049
Mean motion
15.33446240 rev/d
Perigee alt
464.8 km
Apogee alt
466.3 km
Semi-major
6,843.7 km
B*
4.6450e-4
RAAN
328.9018°
Arg perigee
100.4485°
Mean anomaly
259.6877°
Rev number
5,848

§ Raw data

STARLINK-351331 65535U 25200R   26262.45034400  .00014951  00000+0  46450-3 0  99922 65535  97.2842 328.9018 0001049 100.4485 259.6877 15.33446240 58486

JSON: /api/v1/satellites/65535 · /tle

For live sub-satellite position, see the globe view (requires WebGL).

§ Visibility from observer

Set your observer location to see the next 7 days of passes ≥ 10°. The values pass through the URL so the page stays shareable.

No JS? Fill the form by hand. The geolocation button needs JavaScript.